GW2424 Weather Reports


time (UTC)temp
F
wind
direction
speed
knots
gust
knots
rain 1hr
in
rain 24hr
in
rain mn
in
humidity
%
barometer
mb
20260503013058 59 0 0.0 0.9 0.00 0.00 0.00 43 1017.0
20260503011601 60 291 0.9 2.6 0.00 0.00 0.00 40 1017.1
20260503010054 61 264 1.7 2.6 0.00 0.00 0.00 39 1017.2
20260503004614 61 271 1.7 2.6 0.00 0.00 0.00 40 1017.4
20260503003105 61 289 1.7 5.2 0.00 0.00 0.00 41 1017.5
20260503001601 61 288 2.6 4.3 0.00 0.00 0.00 41 1017.6
20260503000105 61 296 1.7 6.1 0.00 0.00 0.00 41 1017.8
20260502234556 62 27 1.7 5.2 0.00 0.00 0.00 40 1017.8
20260502233051 62 0 1.7 5.2 0.00 0.00 0.00 41 1017.9
20260502231552 61 259 4.3 7.0 0.00 0.00 0.00 40 1018.1
20260502230054 62 264 1.7 5.2 0.00 0.00 0.00 40 1018.1
20260502224547 62 337 2.6 7.0 0.00 0.00 0.00 40 1018.5
20260502223047 61 326 3.5 6.1 0.00 0.00 0.00 42 1018.8
20260502221552 61 293 3.5 7.0 0.00 0.00 0.00 41 1019.1
20260502220049 61 285 1.7 5.2 0.00 0.00 0.00 44 1019.3
20260502214551 62 287 3.5 5.2 0.00 0.00 0.00 41 1019.6
20260502213051 60 156 1.7 6.1 0.00 0.00 0.00 45 1019.6
20260502211552 59 299 3.5 6.1 0.00 0.00 0.00 43 1019.7
20260502210049 59 298 2.6 6.1 0.00 0.00 0.00 43 1019.9
20260502204548 58 288 2.6 7.8 0.00 0.00 0.00 45 1019.9
20260502203053 59 27 1.7 7.0 0.00 0.00 0.00 45 1020.1
20260502201552 58 359 3.5 8.7 0.00 0.00 0.00 45 1020.2
20260502200055 59 326 3.5 7.0 0.00 0.00 0.00 46 1020.4
20260502194548 58 293 1.7 7.8 0.00 0.00 0.00 47 1020.5
20260502193048 58 323 2.6 9.6 0.00 0.00 0.00 46 1020.6
20260502191558 58 354 2.6 9.6 0.00 0.00 0.00 47 1020.9
20260502190052 57 5 2.6 7.0 0.00 0.00 0.00 49 1020.8
20260502184549 57 25 4.3 11.3 0.00 0.00 0.00 50 1021.0
20260502183047 57 32 4.3 9.6 0.00 0.00 0.00 46 1021.1
20260502181553 57 15 5.2 12.2 0.00 0.00 0.00 48 1021.2
20260502163101 55 305 2.6 7.0 0.00 0.00 0.00 55 1021.4
20260502161555 53 8 1.7 3.5 0.00 0.00 0.00 55 1021.4
20260502151557 51 338 2.6 7.8 0.00 0.00 0.00 61 1021.5
20260502130111 41 0 0.0 0.0 0.00 0.00 0.00 68 1020.6
20260502123100 41 0 0.0 2.6 0.00 0.00 0.00 67 1020.4
20260502121552 40 201 0.9 3.5 0.00 0.00 0.00 68 1020.3
20260502114552 43 298 0.9 5.2 0.00 0.00 0.00 61 1020.1
20260502113050 45 39 3.5 5.2 0.00 0.00 0.00 60 1020.0
20260502111555 44 51 3.5 4.3 0.00 0.00 0.00 64 1019.7
20260502110052 41 333 0.9 2.6 0.00 0.00 0.00 66 1019.7
20260502104552 43 333 2.6 7.8 0.00 0.00 0.00 62 1019.7
20260502103048 50 50 7.0 13.0 0.00 0.00 0.00 50 1019.2
20260502101552 51 40 11.3 18.2 0.00 0.00 0.00 49 1018.2
20260502080104 54 308 5.2 10.4 0.00 0.00 0.00 40 1017.5
20260502070051 49 206 0.9 3.5 0.00 0.00 0.00 49 1017.0
20260502064551 48 193 1.7 2.6 0.00 0.00 0.00 52 1016.9
20260502063100 47 160 1.7 3.5 0.00 0.00 0.00 53 1017.0
20260502061551 47 158 2.6 3.5 0.00 0.00 0.00 54 1017.0
20260502060049 46 173 2.6 3.5 0.00 0.00 0.00 55 1016.9
20260502054551 45 157 1.7 2.6 0.00 0.00 0.00 56 1017.0
20260502053056 45 155 1.7 3.5 0.00 0.00 0.00 53 1017.1
20260502051551 49 151 0.9 3.5 0.00 0.00 0.00 46 1017.1
20260502050054 52 161 0.9 2.6 0.00 0.00 0.00 41 1017.0
20260502044553 50 143 1.7 2.6 0.00 0.00 0.00 43 1017.1
20260502043047 51 229 1.7 4.3 0.00 0.00 0.00 41 1017.0
20260502041558 51 203 1.7 2.6 0.00 0.00 0.00 40 1017.0
20260502040048 49 131 2.6 5.2 0.00 0.00 0.00 45 1016.8
20260502034551 49 155 1.7 2.6 0.00 0.00 0.00 47 1016.6
20260502033052 50 150 2.6 3.5 0.00 0.00 0.00 44 1016.4
20260502031549 54 135 0.0 3.5 0.00 0.00 0.00 37 1016.3
20260502030051 55 207 1.7 3.5 0.00 0.00 0.00 36 1016.4
20260502024549 59 212 1.7 2.6 0.00 0.00 0.00 32 1016.0
20260502023052 59 213 1.7 1.7 0.00 0.00 0.00 36 1016.1
20260502021554 60 80 0.0 1.7 0.00 0.00 0.00 39 1016.0
20260502020053 64 300 0.9 2.6 0.00 0.00 0.00 35 1015.9
20260502014553 65 213 0.0 0.9 0.00 0.00 0.00 31 1015.9